Hourly Data Report for July 16, 2021

NORTH CAPE
PRINCE EDWARD ISLAND
Current Station Operator: ECCC - MSC

47°03'29.000" N
63°59'55.000" W
7.60 m
8300516
71987
WNE

Download Data

Hourly Data (July 2021)
Hourly Data Report for July 16, 2021
TIME
LST
Temp Definition
°C
Dew Point Definition
°C
Rel Hum Definition
%
Precip. Amount Definition
mm

Wind Dir Definition
10's deg

Wind Spd Definition
km/h
Visibility Definition
km
Stn Press Definition
kPa
Hmdx Definition


Wind Chill Definition


Weather Definition


00:00 20.6 19.8 95 0.0 19 14   101.34 28   LegendNANA
01:00 21.2 19.7 91 0.0 21 18   101.30 29   LegendNANA
02:00 20.8 19.6 93 0.0 20 14   101.27 28   LegendNANA
03:00 20.9 19.7 93 0.0 20 15   101.24 28   LegendNANA
04:00 21.1 19.8 92 0.0 19 16   101.19 29   LegendNANA
05:00 20.9 19.6 92 0.0 19 18   101.16 28   LegendNANA
06:00 21.0 19.5 91 0.0 21 18   101.15 28   LegendNANA
07:00 21.0 19.1 88 0.0 22 26   101.14 28   LegendNANA
08:00 22.5 19.8 84 0.0 22 23   101.10 30   LegendNANA
09:00 23.9 20.0 79 0.0 21 26   101.04 31   LegendNANA
10:00 25.9 21.3 76 0.0 20 23   100.96 35   LegendNANA
11:00 25.5 21.1 77 0.0 20 26   100.94 34   LegendNANA
12:00 26.7 21.2 72 0.0 21 27   100.88 35   LegendNANA
13:00 27.6 21.9 71 0.0 20 24   100.87 37   LegendNANA
14:00 26.8 21.5 73 0.0 20 26   100.83 36   LegendNANA
15:00 26.0 20.9 74 0.0 20 20   100.83 34   LegendNANA
16:00 27.0 21.6 72 0.0 21 23   100.84 36   LegendNANA
17:00 27.2 21.3 70 0.0 21 24   100.84 36   LegendNANA
18:00 24.3 20.5 79 0.0 22 21   100.86 32   LegendNANA
19:00 20.7 18.1 85 0.0 31 22   100.94 27   LegendNANA
20:00 19.3 18.3 94 0.0 31 18   101.04     LegendNANA
21:00 19.2 18.1 93 0.3 29 15   101.18     LegendNANA
22:00 19.4 16.9 85 0.0 27 21   101.21     LegendNANA
23:00 19.3 16.8 86 0.0 26 21   101.27     LegendNANA

Notes on Data Quality.

Legend

  • E = Estimated
  • M = Missing
  • NA = Not Available*
  • [empty] = Indicates an unobserved value
Date modified: